ONEWEB-0249 (48967 NORAD) Tracking and Keplerian Element Data

This shows tracking and keplerian element data for the satellite.

Feedback or suggestion? Click here.




ElementValue
Catalog48967
NameONEWEB-0249
Epoch Orbit329
Epoch Day339.91667824
Epoch Year2021
RAAN197.8712
Inclination87.9142
Eccentricity0.0001735
Argument of Perigee86.6307
Mean Anonmoly346.2784
Mean Motion13.1658074
Decay Rate0.00023372
L11 48967U 21060A 21339.91667824 .00023372 00000+0 60960-1 0 9992
L22 48967 87.9142 197.8712 0001735 86.6307 346.2784 13.16580740 3291

Live tracking and technical data element details for ONEWEB-0249 (NORAD 48967). ONEWEB-0249 can be tracked NOW for your location showing map with azimuth and elevation plus other details from your city location.

Track the satellite on the map from your city or location and see movement details for azimuth, elevation, latitude, longitude, range, height, and movement on the map or in text.







IsCatalogInMostPopularTable: catalog: 48967, numindb: 30
Update: records affected: 1



GetName: 48967 ONEWEB-0249

Hit Count: updated at: Mon, 06 Dec 2021 19:46:08 GMT